Weather History for Montrose, CO

Change the Weather History Date:

Friday, February 22, 2013

  Actual Average Record
Temperature  
Mean Temperature 23 °F 35 °F  
Max Temperature 32 °F 47 °F 62 °F (2007)
Min Temperature 14 °F 23 °F 12 °F (2006)
Degree Days  
Heating Degree Days 42 30  
Month to date heating degree days 724 734  
Since 1 July heating degree days 4437 4539  
Cooling Degree Days 0 0  
Month to date cooling degree days 0 0  
Year to date cooling degree days 0 0  
Moisture  
Dew Point 23 °F    
Average Humidity 77    
Maximum Humidity 100    
Minimum Humidity 53    
Precipitation  
Precipitation 0.04 in 0.03 in 0.04 in (2013)
Month to date precipitation 0.19 0.42  
Year to date precipitation 0.76 1.07  
Sea Level Pressure  
Sea Level Pressure 29.95 in    
Wind  
Wind Speed 7 mph (NNW)    
Max Wind Speed 15 mph    
Max Gust Speed 20 mph    
Visibility 3 miles    
Events Fog , Snow    
T = Trace of Precipitation, MM = Missing Value Source: NWS Daily Summary

Daily Weather History Graph

Daily Weather History Graph

Search for Another Location

Airport:

Trip Planner

Search our weather history database for the weather conditions in past years. The results will help you decide how hot, cold, wet, or windy it might be!

Date:

Astronomy

Feb. 22, 2013 Rise Set
Actual Time 6:52 AM MST 5:57 PM MST
Civil Twilight 6:26 AM MST 6:24 PM MST
Nautical Twilight 5:55 AM MST 6:55 PM MST
Astronomical Twilight 5:24 AM MST 7:26 PM MST
Moon 3:13 PM MST 4:38 AM MST
Length of Visible Light 11h 58m
Length of Day
11h 04m
Waxing Gibbous, 90% of the Moon is Illuminated
Feb 22
Waxing Gibbous
Feb 25
Full
Mar 4
Last Quarter
Mar 11
New
Mar 19
First Quarter

Hourly Weather History & Observations

Time (MST) Temp. Windchill Dew Point Humidity Pressure Visibility Wind Dir Wind Speed Gust Speed Precip Events Conditions
12:40 AM 28.4 °F - 26.6 °F 93% 29.88 in 9.0 mi Calm Calm - N/A   Overcast
12:53 AM 28.9 °F - 27.0 °F 92% 29.88 in 7.0 mi Calm Calm - N/A   Overcast
1:20 AM 28.4 °F - 28.4 °F 100% 29.88 in 2.5 mi Calm Calm - 0.00 in Snow Light Snow
1:45 AM 28.4 °F - 28.4 °F 100% 29.88 in 4.0 mi Calm Calm - 0.00 in Snow Light Snow
1:53 AM 28.9 °F - 28.0 °F 96% 29.88 in 4.0 mi Calm Calm - 0.00 in Snow Light Snow
2:12 AM 28.4 °F - 26.6 °F 93% 29.89 in 3.0 mi Calm Calm - 0.00 in Snow Light Snow
2:19 AM 28.4 °F 24.6 °F 26.6 °F 93% 29.88 in 2.5 mi North 3.5 mph - 0.00 in Snow Light Snow
2:23 AM 28.4 °F 24.6 °F 26.6 °F 93% 29.88 in 3.0 mi North 3.5 mph - 0.00 in Snow Light Snow
2:36 AM 28.4 °F - 28.4 °F 100% 29.88 in 2.5 mi Calm Calm - 0.00 in Snow Light Snow
2:44 AM 28.4 °F - 26.6 °F 93% 29.88 in 2.5 mi Calm Calm - 0.00 in Snow Light Snow
2:53 AM 28.9 °F 25.2 °F 28.0 °F 96% 29.87 in 2.0 mi NNE 3.5 mph - 0.00 in Snow Light Snow
3:02 AM 28.4 °F - 26.6 °F 93% 29.88 in 2.0 mi Calm Calm - 0.00 in Snow Light Snow
3:14 AM 28.4 °F 24.6 °F 26.6 °F 93% 29.88 in 3.0 mi NNW 3.5 mph - 0.00 in Snow Light Snow
3:41 AM 28.4 °F 21.2 °F 26.6 °F 93% 29.88 in 4.0 mi NNW 6.9 mph - 0.00 in Snow Light Snow
3:53 AM 28.0 °F 21.7 °F 26.1 °F 92% 29.88 in 4.0 mi North 5.8 mph - 0.00 in Snow Light Snow
3:56 AM 26.6 °F 21.2 °F 26.6 °F 100% 29.88 in 4.0 mi North 4.6 mph - 0.00 in Snow Light Snow
4:06 AM 26.6 °F 22.6 °F 26.6 °F 100% 29.88 in 4.0 mi North 3.5 mph - 0.00 in Snow Light Snow
4:30 AM 26.6 °F 22.6 °F 26.6 °F 100% 29.89 in 3.0 mi North 3.5 mph - 0.00 in Snow Light Snow
4:39 AM 26.6 °F 22.6 °F 26.6 °F 100% 29.89 in 1.8 mi NNE 3.5 mph - 0.00 in Snow Light Snow
4:50 AM 26.6 °F - 26.6 °F 100% 29.89 in 1.8 mi Calm Calm - 0.01 in Snow Light Snow
4:53 AM 27.0 °F - 26.1 °F 96% 29.88 in 1.8 mi Calm Calm - 0.01 in Snow Light Snow
5:03 AM 26.6 °F 22.6 °F 26.6 °F 100% 29.89 in 2.5 mi North 3.5 mph - 0.00 in Snow Light Snow
5:11 AM 26.6 °F 22.6 °F 26.6 °F 100% 29.90 in 4.0 mi North 3.5 mph - 0.00 in Snow Light Snow
5:25 AM 26.6 °F 22.6 °F 26.6 °F 100% 29.90 in 2.0 mi North 3.5 mph - 0.00 in Snow Light Snow
5:53 AM 26.1 °F - 25.0 °F 96% 29.91 in 3.0 mi Calm Calm - 0.00 in Snow Light Snow
6:07 AM 26.6 °F - 24.8 °F 93% 29.90 in 5.0 mi Calm Calm - 0.00 in Snow Light Snow
6:47 AM 26.6 °F - 24.8 °F 93% 29.91 in 2.5 mi Calm Calm - 0.00 in Snow Light Snow
6:53 AM 26.1 °F - 25.0 °F 96% 29.93 in 2.0 mi Calm Calm - 0.00 in Snow Light Snow
6:56 AM 26.6 °F - 24.8 °F 93% 29.91 in 1.8 mi Calm Calm - 0.00 in Snow Light Snow
7:05 AM 26.6 °F - 24.8 °F 93% 29.91 in 2.5 mi Calm Calm - 0.00 in Snow Light Snow
7:12 AM 26.6 °F - 24.8 °F 93% 29.91 in 1.0 mi Calm Calm - 0.00 in Snow Light Snow
7:28 AM 26.6 °F 21.2 °F 24.8 °F 93% 29.92 in 1.8 mi North 4.6 mph - 0.00 in Snow Light Snow
7:33 AM 26.6 °F 21.2 °F 24.8 °F 93% 29.92 in 2.0 mi North 4.6 mph - 0.00 in Snow Light Snow
7:40 AM 26.6 °F 21.2 °F 24.8 °F 93% 29.92 in 2.0 mi NNW 4.6 mph - 0.00 in Snow Light Snow
7:53 AM 26.1 °F 21.9 °F 24.1 °F 92% 29.94 in 2.5 mi North 3.5 mph - 0.00 in Snow Light Snow
8:11 AM 26.6 °F 20.0 °F 24.8 °F 93% 29.93 in 4.0 mi NNW 5.8 mph - 0.00 in Snow Light Snow
8:20 AM 26.6 °F 20.0 °F 23.0 °F 86% 29.93 in 2.5 mi NW 5.8 mph - 0.00 in Snow Light Snow
8:31 AM 26.6 °F 18.2 °F 24.8 °F 93% 29.94 in 1.5 mi NW 8.1 mph - 0.00 in Snow Light Snow
8:50 AM 26.6 °F 19.1 °F 23.0 °F 86% 29.94 in 1.8 mi NW 6.9 mph - 0.00 in Snow Light Snow
8:53 AM 26.1 °F 17.6 °F 23.0 °F 88% 29.96 in 2.0 mi NW 8.1 mph - 0.00 in Snow Light Snow
9:04 AM 26.6 °F 17.5 °F 23.0 °F 86% 29.94 in 1.8 mi NW 9.2 mph - 0.01 in Snow Light Snow
9:12 AM 26.6 °F 20.0 °F 24.8 °F 93% 29.94 in 1.2 mi NW 5.8 mph - 0.01 in Snow Light Snow
9:24 AM 26.6 °F 19.1 °F 23.0 °F 86% 29.94 in 1.0 mi NW 6.9 mph - 0.01 in Snow Light Snow
9:31 AM 26.6 °F 17.5 °F 24.8 °F 93% 29.94 in 0.5 mi NW 9.2 mph - 0.01 in Fog , Snow Snow
9:39 AM 26.6 °F 18.2 °F 24.8 °F 93% 29.94 in 0.5 mi NW 8.1 mph - 0.01 in Fog , Snow Snow
9:51 AM 24.8 °F 15.3 °F 23.0 °F 93% 29.95 in 0.5 mi NNW 9.2 mph - 0.01 in Fog , Snow Snow
9:53 AM 25.0 °F 16.3 °F 23.0 °F 92% 29.98 in 0.5 mi NW 8.1 mph - 0.02 in Fog , Snow Snow
10:01 AM 24.8 °F 14.0 °F 23.0 °F 93% 29.95 in 0.5 mi NW 11.5 mph - 0.00 in Fog , Snow Snow
10:13 AM 24.8 °F 16.1 °F 23.0 °F 93% 29.95 in 0.5 mi NW 8.1 mph - 0.00 in Fog , Snow Snow
10:38 AM 26.6 °F 19.1 °F 23.0 °F 86% 29.96 in 1.2 mi NNW 6.9 mph - 0.00 in Snow Light Snow
10:53 AM 26.1 °F 16.8 °F 23.0 °F 88% 29.99 in 1.0 mi NNW 9.2 mph - 0.00 in Snow Light Snow
11:04 AM 26.6 °F 18.2 °F 23.0 °F 86% 29.97 in 0.5 mi NNW 8.1 mph - 0.00 in Fog , Snow Snow
11:11 AM 26.6 °F 16.8 °F 23.0 °F 86% 29.97 in 0.5 mi NNW 10.4 mph - 0.01 in Fog , Snow Snow
11:20 AM 26.6 °F 17.5 °F 23.0 °F 86% 29.97 in 1.0 mi NNW 9.2 mph - 0.01 in Snow Light Snow
11:25 AM 26.6 °F 19.1 °F 23.0 °F 86% 29.97 in 1.2 mi NNW 6.9 mph - 0.01 in Snow Light Snow
11:35 AM 26.6 °F 18.2 °F 23.0 °F 86% 29.97 in 1.8 mi NNW 8.1 mph - 0.01 in Snow Light Snow
11:38 AM 26.6 °F 17.5 °F 23.0 °F 86% 29.97 in 1.5 mi NW 9.2 mph - 0.01 in Snow Light Snow
11:48 AM 26.6 °F 19.1 °F 23.0 °F 86% 29.97 in 1.0 mi NNW 6.9 mph - 0.01 in Snow Light Snow
11:53 AM 27.0 °F 17.3 °F 23.0 °F 85% 30.00 in 1.2 mi NW 10.4 mph - 0.01 in Snow Light Snow
11:58 AM 26.6 °F 15.2 °F 21.2 °F 80% 29.97 in 1.0 mi WNW 13.8 mph - 0.00 in Snow Light Snow
12:06 PM 26.6 °F 16.2 °F 21.2 °F 80% 29.97 in 1.0 mi NW 11.5 mph - 0.00 in Snow Light Snow
12:20 PM 26.6 °F 16.8 °F 23.0 °F 86% 29.97 in 1.5 mi NW 10.4 mph - 0.00 in Snow Light Snow
12:23 PM 26.6 °F 16.8 °F 21.2 °F 80% 29.97 in 1.8 mi NNW 10.4 mph - 0.00 in Snow Light Snow
12:30 PM 26.6 °F 17.5 °F 21.2 °F 80% 29.97 in 3.0 mi NNW 9.2 mph - 0.00 in Snow Light Snow
12:53 PM 27.0 °F 17.3 °F 21.0 °F 78% 29.99 in 2.5 mi NNW 10.4 mph - 0.00 in Snow Light Snow
12:56 PM 26.6 °F 18.2 °F 21.2 °F 80% 29.97 in 1.5 mi NW 8.1 mph - 0.00 in Snow Light Snow
1:08 PM 26.6 °F 18.2 °F 21.2 °F 80% 29.96 in 1.0 mi WNW 8.1 mph - 0.00 in Snow Light Snow
1:22 PM 26.6 °F 21.2 °F 23.0 °F 86% 29.96 in 1.8 mi West 4.6 mph - 0.00 in Snow Light Snow
1:25 PM 26.6 °F 21.2 °F 23.0 °F 86% 29.96 in 3.0 mi West 4.6 mph - 0.00 in Snow Light Snow
1:53 PM 30.0 °F 20.5 °F 19.9 °F 66% 29.96 in 10.0 mi WNW 11.5 mph - 0.00 in   Overcast
2:23 PM 30.2 °F 19.8 °F 17.6 °F 60% 29.95 in 10.0 mi WNW 13.8 mph - N/A   Overcast
2:53 PM 30.9 °F 22.2 °F 18.0 °F 59% 29.97 in 10.0 mi WNW 10.4 mph - N/A   Overcast
3:53 PM 30.9 °F 21.2 °F 15.1 °F 52% 29.97 in 10.0 mi WNW 12.7 mph - N/A   Overcast
4:53 PM 30.9 °F 21.7 °F 18.0 °F 59% 30.00 in 10.0 mi NW 11.5 mph - N/A   Mostly Cloudy
5:53 PM 25.0 °F 17.1 °F 17.1 °F 72% 30.04 in 10.0 mi SSE 6.9 mph - N/A   Mostly Cloudy
6:53 PM 24.1 °F 15.2 °F 18.0 °F 77% 30.08 in 10.0 mi SSE 8.1 mph - N/A   Mostly Cloudy
7:53 PM 21.0 °F 10.6 °F 12.9 °F 71% 30.10 in 10.0 mi SSE 9.2 mph - N/A   Mostly Cloudy
8:53 PM 16.0 °F 5.3 °F 10.0 °F 77% 30.14 in 10.0 mi SE 8.1 mph - N/A   Clear
9:53 PM 16.0 °F 5.3 °F 9.0 °F 74% 30.16 in 10.0 mi SE 8.1 mph - N/A   Clear
10:53 PM 17.1 °F 5.0 °F 8.1 °F 68% 30.16 in 10.0 mi SSE 10.4 mph - N/A   Clear
11:53 PM 16.0 °F 1.7 °F 8.1 °F 71% 30.14 in 10.0 mi SSE 13.8 mph - N/A   Clear